Location: Be?i?
(36.9044°N, 30.1006°E)
Time: 12:19:17
(UTC+00:00)

Cosmos 1271 Rocket - Pass Details

Date: 05 August 2024
Orbit: 465 x 505 km, 81.2° (Epoch: 09 September)

Event Time Altitude Azimuth Distance (km) Brightness Sun altitude
Exits shadow 18:56:23 19° 209° (SSW) 1,251 4.5 -20.3°
Maximum altitude 18:58:52 53° 280° (W) 639 3.4 -20.7°
Drops below altitude 10° 19:02:37 10° 358° (N) 1,742 5.9 -21.2°
Sets 19:04:48 0° 4° (N) 2,630 6.9 -21.6°
